Location: Unspecified
(0.0000°N, 0.0000°E)
Time: 16:35:22
(UTC+00:00)

N. Korean satellite - Pass Details

Date: 19 September 2020
Orbit: 455 x 503 km, 97.2° (Epoch: 19 September)

Event Time Altitude Azimuth Distance (km) Brightness Sun altitude
Rises 04:59:43 0° 17° (NNE) 2,543 10.5 -13.5°
Reaches altitude 10° 05:01:48 10° 21° (NNE) 1,658 9.5 -13.0°
Maximum altitude 05:05:19 59° 100° (E) 554 7.2 -12.1°
Drops below altitude 10° 05:08:48 10° 181° (S) 1,638 9.2 -11.2°
Sets 05:10:51 0° 185° (S) 2,510 10.1 -10.7°
